Wind_Speed
37 36 34 34 33 33 34 35 36 37 38 40 41 43 45 47 49 50 47 48 46 47 51 53 56 57 59 58 60 62 64 58 57 57 58 61 62 63 64 65 69 72 75 76 78 77 71 73 80 81 85 87 89 84
30 32 33 34 34 34 36 37 38 39 40 41 41 42 43 45 47 46 44 44 45 48 50 53 54 55 57 60 63 63 60 61 58 54 54 58 60 61 59 60 65 69 71 74 77 74 75 76 75 74 76 78 81 83
26 28 30 31 32 32 34 36 39 41 43 45 46 47 48 49 49 46 46 47 46 43 46 45 48 52 52 58 59 56 57 57 57 57 57 58 60 60 55 55 64 64 68 69 74 67 74 80 77 74 72 68 65 71
21 22 23 25 26 28 30 32 34 37 39 42 45 48 49 50 49 48 47 50 48 43 41 48 46 45 52 54 56 54 55 57 58 55 55 56 56 58 55 52 57 60 65 63 63 68 73 78 75 74 76 70 67 64
18 18 19 19 20 22 23 25 27 30 33 36 39 41 42 42 42 43 46 50 46 46 46 48 45 47 48 51 56 57 53 57 56 55 51 52 49 49 50 51 54 58 57 58 61 67 72 77 78 77 79 71 72 76
14 14 14 14 15 16 17 18 18 20 23 26 28 31 32 33 34 34 35 37 39 41 44 48 50 49 49 54 56 53 54 58 57 54 45 41 49 45 45 48 55 59 57 53 61 65 73 76 80 78 77 73 72 73
9 8 7 7 7 7 9 11 12 13 15 19 22 24 26 29 31 32 36 41 39 42 45 47 47 48 43 44 46 49 51 52 51 51 49 49 47 45 51 52 53 56 53 52 59 66 73 75 80 81 80 73 74 70
3 4 4 4 2 1 3 6 8 10 12 16 19 21 23 25 26 29 29 31 32 29 33 32 33 35 35 32 35 38 42 45 46 49 49 47 48 48 48 49 54 56 55 54 58 62 70 75 82 86 82 78 77 72
7 8 7 7 7 5 4 6 9 13 16 17 20 21 21 21 22 24 26 27 27 28 26 24 28 28 30 32 33 34 36 39 43 45 47 47 48 51 50 51 56 57 55 55 57 62 70 74 88 87 81 80 74 70
11 10 9 9 9 10 10 9 12 14 16 19 21 21 23 24 25 27 29 30 30 27 26 28 29 32 31 31 31 33 36 38 38 39 41 41 44 45 50 52 53 53 52 53 54 57 64 72 77 79 80 76 70 69
12 13 13 13 12 13 15 16 17 20 21 23 22 21 20 21 23 25 25 26 27 28 30 31 31 29 28 28 31 34 36 37 38 39 40 41 42 41 41 44 47 49 49 48 46 48 56 62 70 69 71 68 68 63
14 15 15 17 18 18 17 19 21 22 22 24 26 25 23 22 23 23 24 24 26 26 25 25 25 26 28 29 29 30 30 32 35 34 34 34 36 37 39 41 44 44 42 42 47 51 52 55 58 63 67 67 66 62
16 16 16 16 18 18 20 23 24 26 25 24 24 25 24 24 23 23 23 21 21 22 23 23 24 24 25 26 26 27 28 29 27 29 30 31 29 30 32 34 36 38 40 41 46 48 51 53 54 58 61 64 67 65
17 18 18 20 21 22 22 23 24 24 25 24 24 26 27 27 26 26 25 25 24 24 24 23 23 22 20 19 19 19 19 19 20 22 23 23 25 28 32 35 36 40 40 45 44 47 48 46 52 54 58 60 61 64
19 18 19 20 21 22 24 25 25 25 25 24 24 24 24 25 26 27 27 27 26 25 24 24 23 22 21 20 20 20 19 19 20 22 23 25 25 27 27 25 28 33 39 48 53 51 48 45 44 48 54 58 60 63
21 21 21 22 22 22 23 24 24 24 24 24 25 26 25 24 23 23 23 25 26 25 24 24 23 21 18 16 16 15 14 17 19 22 24 25 26 27 29 30 32 37 40 42 45 44 44 45 46 49 52 56 59 63
25 25 26 28 28 27 26 27 27 27 25 23 23 23 25 24 22 22 24 24 23 20 17 16 15 13 11 8 8 8 11 13 16 17 18 21 25 28 30 32 33 36 42 44 44 45 45 46 49 52 56 60 63 67
32 30 30 31 29 27 27 28 29 30 28 26 25 24 23 24 23 22 22 20 19 18 16 13 11 10 6 5 4 5 4 5 8 12 15 14 17 21 25 28 32 35 39 43 45 46 47 49 51 54 57 60 63 67
34 32 32 34 35 33 32 34 33 33 31 31 29 29 28 28 26 23 21 22 24 24 23 19 17 16 14 11 8 5 6 5 6 8 10 12 14 17 21 25 29 34 38 41 44 46 49 51 53 56 58 61 64 67
38 35 34 35 36 36 39 35 38 39 34 29 30 33 31 28 29 32 32 30 28 23 18 14 12 10 8 6 4 1 3 5 7 11 14 17 21 24 27 29 32 35 39 43 46 50 53 56 58 60 62 64 66 67
36 34 33 34 35 34 34 30 33 34 32 30 25 27 29 27 26 26 23 20 18 14 11 9 8 9 8 9 11 13 15 18 20 22 25 29 33 36 40 42 44 46 48 50 52 54 57 59 61 64 65 67 68 69
34 32 31 30 30 29 29 24 25 28 29 25 23 24 23 21 19 18 17 16 15 17 17 17 17 18 19 22 24 26 28 30 33 36 38 40 42 45 48 51 53 55 57 59 60 62 63 64 65 66 66 66 67 68
30 28 26 26 22 23 22 21 20 16 18 19 21 18 17 15 14 14 13 13 14 14 17 19 21 26 30 33 35 38 41 44 46 47 48 48 49 49 49 50 50 51 53 55 57 59 61 63 64 66 68 70 71 73
20 19 21 21 17 16 16 14 15 16 14 13 12 11 11 12 12 13 14 15 16 19 21 25 30 33 37 41 44 47 50 52 54 54 54 55 54 51 50 49 48 49 50 50 50 51 52 54 55 56 57 58 58 59
18 17 16 15 13 11 8 7 6 7 8 10 11 13 14 14 15 16 18 19 19 23 28 32 35 39 43 47 51 54 55 55 54 50 48 47 46 46 45 44 43 43 44 45 45 45 45 46 47 48 49 50 51 52
18 15 12 9 6 3 1 3 6 8 12 16 18 19 18 19 21 21 22 25 28 32 35 39 43 45 50 53 56 55 53 49 47 44 41 40 39 39 39 39 39 38 38 39 40 40 41 42 44 45 46 47 48 49
13 11 8 6 6 7 9 11 13 16 19 21 24 27 27 28 29 30 31 33 37 39 44 48 51 53 54 53 51 48 46 44 43 41 39 37 36 36 37 37 38 38 38 39 39 40 40 40 41 42 43 44 45 46
11 10 10 9 10 11 15 17 18 20 23 26 28 30 32 33 35 37 39 40 43 47 50 53 55 53 51 48 45 42 41 39 38 37 37 36 35 35 35 35 36 36 36 36 37 38 38 39 40 41 42 43 44 44
14 13 13 15 16 19 21 22 24 26 28 29 31 34 36 38 40 41 43 47 50 53 54 53 52 50 47 45 41 38 37 36 35 34 34 35 34 34 34 33 34 34 35 36 36 37 38 39 39 39 39 40 40 41
20 20 20 22 23 24 26 28 29 31 33 35 37 38 40 40 43 46 49 51 53 54 53 50 48 45 43 40 39 37 36 35 35 35 34 33 32 33 33 34 34 34 34 35 35 35 34 34 35 35 35 36 37 38
27 27 28 28 29 30 33 34 34 35 36 38 40 41 43 45 47 50 51 53 53 51 49 47 44 43 42 39 37 36 36 35 34 33 33 33 34 34 33 33 33 33 33 32 31 31 32 32 33 33 34 34 34 35
32 33 33 33 34 36 36 35 36 38 40 41 43 45 47 48 51 51 52 51 49 47 45 43 40 39 39 39 38 36 36 35 35 34 34 34 34 34 34 33 33 31 31 31 31 31 32 32 32 32 32 33 33 34
35 35 36 38 38 36 37 39 40 42 43 45 46 48 49 50 51 50 47 45 43 42 41 40 39 38 37 37 36 36 35 35 35 35 34 34 35 34 33 32 31 31 31 31 31 31 30 30 31 31 31 32 32 32
Wind_Direction
273 273 271 266 262 257 254 252 250 248 246 243 241 239 238 239 240 240 234 232 224 221 224 225 227 228 233 236 238 239 244 244 240 240 240 240 240 238 236 236 236 237 237 236 238 240 239 236 240 242 243 245 248 248
275 270 266 262 258 254 250 246 242 240 239 239 238 238 238 237 238 238 237 235 229 220 219 224 226 227 228 233 237 241 242 243 243 237 237 239 241 238 237 235 235 235 234 234 233 233 235 238 239 241 243 243 244 246
277 270 265 263 259 254 250 246 242 239 237 236 236 235 235 236 238 238 238 235 234 226 223 219 224 230 230 234 236 238 241 242 241 236 235 235 238 241 240 233 233 235 235 233 233 230 230 234 237 239 243 243 241 244
280 274 268 264 260 257 253 248 245 242 239 237 235 234 235 235 235 234 235 237 235 235 231 232 226 225 228 233 237 235 239 243 242 241 237 237 236 238 238 233 232 233 235 235 231 228 226 231 235 235 235 240 244 241
293 286 279 274 269 261 255 249 245 242 238 236 235 235 236 234 232 230 229 231 229 227 225 231 227 226 226 231 239 239 240 242 244 243 241 237 238 238 236 232 231 232 231 230 227 226 227 229 234 237 238 237 242 244
293 283 275 268 264 262 259 254 245 237 231 228 227 226 226 226 227 227 227 229 227 226 226 226 230 233 226 230 235 235 237 240 242 245 245 242 241 237 235 229 229 230 231 228 225 226 224 226 232 236 237 240 242 245
287 285 275 270 271 267 257 250 238 229 214 205 207 210 211 211 212 209 210 211 213 217 220 223 224 229 230 227 231 232 234 238 241 243 245 238 235 228 227 222 228 230 229 226 223 224 225 226 228 234 237 238 241 244
16 18 17 8 44 104 216 214 201 193 186 188 190 192 196 199 201 204 205 205 210 214 213 212 216 223 227 227 225 225 227 228 228 228 228 226 224 220 219 218 224 225 225 224 226 225 225 226 222 232 233 236 238 242
54 56 59 57 67 77 115 153 163 164 165 166 166 171 176 177 181 186 188 190 192 196 199 200 205 204 207 208 207 210 214 216 221 220 218 218 217 215 212 211 219 222 224 224 226 225 226 223 224 231 234 238 242 245
67 61 67 76 85 91 101 123 135 141 146 149 152 157 161 165 170 175 178 179 185 183 176 188 191 196 198 197 197 201 206 210 212 211 214 215 214 218 214 215 221 224 227 226 227 227 230 232 234 237 237 241 243 243
68 76 81 82 84 97 108 112 121 129 135 137 139 142 149 158 162 164 166 169 171 173 178 185 189 191 190 192 194 197 200 204 204 205 208 209 210 212 210 214 219 224 229 236 241 238 233 234 240 241 243 246 245 243
79 81 86 92 96 100 105 113 116 116 122 130 133 135 139 146 153 157 164 168 170 172 175 177 179 180 182 183 187 191 197 202 204 203 204 206 210 211 209 214 220 228 233 236 238 239 239 240 240 240 242 245 246 242
87 89 97 101 103 105 106 110 112 113 117 122 127 127 131 135 140 146 145 145 150 155 159 163 165 168 171 179 183 188 194 200 203 207 209 209 213 215 215 219 223 227 230 232 240 245 244 243 241 241 239 241 242 241
99 96 94 95 100 103 105 107 109 111 114 116 118 121 124 127 129 132 135 141 142 145 144 147 153 158 161 167 175 186 193 193 196 202 211 215 219 220 219 221 227 227 234 235 236 243 248 248 243 243 242 241 241 236
99 98 97 97 98 101 104 106 108 110 115 118 120 122 125 130 134 136 138 140 141 142 142 144 144 149 153 162 166 172 177 182 192 203 213 219 225 233 238 243 242 237 238 236 238 244 251 250 243 244 244 244 242 242
102 101 100 100 102 102 101 100 102 103 107 113 119 123 124 127 129 130 132 132 136 143 148 149 149 155 160 171 173 179 192 204 215 224 233 236 237 240 243 244 243 247 249 245 245 248 247 246 245 243 243 242 243 243
108 107 103 100 99 99 100 101 101 102 103 106 109 113 117 118 123 123 121 126 132 135 135 136 141 144 153 174 193 199 208 218 223 230 239 248 250 247 246 245 243 243 247 250 251 250 249 246 245 246 247 246 244 244
100 99 99 98 96 98 99 99 99 99 101 103 102 101 107 115 115 113 114 116 119 117 117 122 128 130 142 131 170 171 194 238 231 233 242 252 260 262 260 257 255 253 252 251 254 257 259 259 259 258 255 254 253 253
102 102 102 102 101 100 100 96 99 96 96 98 102 106 111 108 105 111 115 112 104 102 98 111 121 124 126 123 123 136 152 161 200 221 243 258 263 262 262 260 259 256 254 256 258 259 262 264 265 265 265 264 263 263
108 109 107 106 105 102 100 101 99 99 100 104 107 106 107 112 115 108 102 101 99 104 107 105 101 103 109 96 93 28 287 274 265 269 268 265 263 261 261 261 260 260 260 260 261 261 262 263 263 263 264 264 265 266
109 108 106 105 102 101 100 101 101 101 98 94 103 106 97 97 95 92 93 95 89 83 73 70 49 24 358 333 315 301 288 277 271 267 266 267 266 268 268 267 266 266 265 263 262 263 264 265 266 267 269 270 271 273
116 112 110 107 104 102 98 94 93 90 89 91 91 91 86 80 71 65 50 42 32 22 10 358 343 335 327 319 311 303 297 292 287 282 277 273 270 269 268 267 268 271 275 278 279 280 280 280 280 279 279 278 277 277
122 119 116 112 115 112 105 97 94 92 80 68 61 56 53 48 41 33 19 8 357 346 336 331 326 323 319 314 309 303 298 292 289 289 289 288 287 288 289 288 286 282 279 277 275 274 273 273 272 272 272 272 272 273
126 126 128 121 113 101 94 88 77 68 62 57 49 40 29 15 3 353 346 338 331 326 325 322 319 314 309 305 300 296 293 293 293 294 297 300 299 295 291 288 286 284 282 280 279 278 277 277 277 277 276 276 276 275
137 139 132 123 119 110 93 75 58 40 22 10 3 0 353 341 330 327 324 316 315 313 311 308 305 303 301 297 295 295 296 297 303 306 301 297 295 293 292 290 288 287 285 285 284 283 282 281 281 281 280 281 281 280
161 162 159 157 156 160 268 330 337 337 335 339 337 333 327 321 319 317 314 312 309 307 305 305 304 301 298 297 298 301 306 309 305 301 299 298 297 296 294 293 292 291 289 288 287 287 286 286 285 285 285 286 286 286
179 191 203 222 257 297 321 329 327 325 325 324 323 321 319 317 315 311 310 308 306 306 306 305 301 298 300 302 305 310 309 306 305 305 304 303 301 299 298 297 296 294 293 292 291 290 290 289 288 288 288 288 288 289
211 223 237 260 278 294 303 308 310 311 311 312 314 314 311 309 308 306 308 308 306 304 302 300 301 305 306 310 313 311 309 307 306 305 305 304 302 300 298 296 295 294 293 293 293 293 293 292 293 292 292 292 293 293
244 252 266 277 283 288 293 296 300 304 307 309 308 306 304 304 306 307 305 304 303 301 303 303 307 309 313 313 312 310 309 307 306 306 305 303 302 301 300 299 299 298 297 297 296 296 295 295 294 295 295 295 295 295
258 262 267 272 277 285 294 297 298 302 304 304 302 301 302 304 304 303 302 303 302 303 306 310 313 314 313 313 312 311 311 310 309 308 307 305 305 305 304 303 302 301 300 299 297 296 296 297 298 299 300 301 301 301
264 270 275 279 285 289 291 293 296 296 296 297 299 302 302 301 302 303 303 303 305 308 310 314 314 313 312 312 312 313 311 310 309 309 309 309 309 308 307 306 304 303 302 301 301 302 304 305 306 307 307 308 307 306
270 273 278 282 283 283 285 288 290 294 297 299 301 300 301 301 301 300 303 305 308 311 312 311 312 311 311 312 313 313 312 312 311 312 313 313 311 310 309 308 307 307 306 307 309 311 312 313 312 312 312 310 310 310
272 275 276 276 279 285 288 291 295 297 300 301 301 300 300 300 301 302 306 310 312 311 311 312 312 313 313 313 313 313 313 313 314 315 314 313 313 312 311 310 310 311 312 314 314 314 314 313 312 313 312 313 314 314
Height
10063 10063 10063 10063 10064 10065 10067 10070 10073 10076 10080 10084 10089 10094 10099 10105 10110 10117 10130 10140 10153 10162 10165 10172 10181 10189 10193 10201 10205 10206 10210 10228 10238 10248 10254 10258 10267 10272 10280 10286 10294 10299 10305 10316 10324 10336 10353 10358 10361 10376 10389 10398 10400 10410
10052 10051 10050 10049 10050 10052 10054 10056 10059 10062 10066 10070 10075 10080 10085 10092 10097 10105 10115 10124 10133 10147 10157 10162 10170 10178 10184 10187 10188 10195 10205 10209 10220 10235 10244 10243 10250 10256 10266 10274 10275 10282 10289 10295 10303 10322 10330 10339 10348 10357 10363 10372 10385 10391
10039 10037 10037 10037 10037 10038 10039 10041 10043 10047 10051 10056 10061 10066 10072 10078 10085 10095 10099 10106 10115 10129 10141 10156 10164 10166 10173 10175 10180 10189 10191 10197 10205 10215 10224 10230 10238 10241 10251 10259 10258 10268 10272 10281 10287 10310 10315 10319 10328 10337 10345 10355 10366 10374
10029 10027 10026 10025 10025 10025 10025 10027 10029 10032 10036 10041 10046 10051 10057 10064 10073 10081 10091 10097 10103 10117 10128 10134 10145 10157 10159 10164 10167 10175 10179 10182 10188 10200 10209 10216 10226 10230 10237 10243 10248 10253 10252 10271 10283 10288 10294 10302 10314 10322 10331 10335 10345 10357
10021 10018 10016 10015 10014 10014 10014 10014 10016 10019 10023 10027 10032 10039 10045 10052 10060 10068 10076 10081 10093 10102 10112 10119 10127 10137 10145 10150 10153 10159 10169 10172 10178 10185 10196 10203 10212 10219 10224 10229 10236 10239 10246 10256 10269 10273 10281 10290 10296 10305 10313 10324 10329 10334
10014 10012 10011 10009 10007 10006 10006 10006 10008 10010 10014 10018 10023 10028 10035 10041 10048 10057 10066 10076 10085 10094 10102 10108 10114 10122 10131 10136 10141 10150 10155 10159 10168 10175 10182 10194 10197 10205 10213 10219 10221 10226 10234 10247 10256 10262 10268 10276 10282 10289 10299 10306 10313 10317
10012 10009 10008 10005 10003 10002 10001 10001 10002 10005 10009 10013 10017 10022 10028 10034 10040 10048 10055 10060 10069 10078 10085 10093 10101 10108 10114 10126 10134 10140 10145 10151 10159 10165 10173 10175 10182 10190 10194 10203 10212 10217 10227 10237 10241 10246 10252 10262 10269 10274 10281 10290 10295 10302
10010 10007 10005 10002 10001 9999 9999 9999 10000 10003 10007 10010 10015 10019 10023 10028 10035 10041 10049 10056 10062 10070 10075 10083 10093 10101 10108 10115 10122 10130 10136 10142 10148 10154 10158 10163 10169 10178 10186 10197 10199 10205 10213 10225 10229 10235 10242 10250 10256 10258 10266 10272 10278 10286
10009 10007 10005 10002 10002 10001 10000 10000 10001 10003 10005 10009 10013 10017 10022 10028 10034 10040 10046 10052 10059 10066 10074 10082 10088 10095 10101 10106 10113 10120 10126 10132 10137 10144 10147 10153 10160 10167 10177 10185 10188 10194 10203 10211 10217 10223 10228 10235 10240 10244 10250 10256 10265 10274
10012 10010 10008 10006 10004 10004 10005 10005 10005 10006 10008 10011 10014 10018 10024 10028 10033 10040 10044 10052 10058 10064 10071 10076 10084 10089 10094 10100 10107 10114 10119 10124 10130 10138 10144 10150 10157 10165 10173 10178 10183 10189 10196 10202 10207 10214 10218 10222 10226 10232 10239 10245 10253 10261
10016 10014 10014 10012 10009 10009 10010 10010 10011 10012 10013 10016 10020 10024 10029 10032 10037 10041 10047 10053 10058 10064 10069 10075 10081 10087 10093 10099 10104 10110 10115 10119 10126 10134 10140 10146 10153 10161 10170 10174 10179 10184 10188 10195 10202 10208 10212 10217 10218 10222 10228 10233 10239 10247
10022 10020 10020 10019 10018 10018 10018 10018 10017 10018 10021 10023 10025 10028 10033 10038 10042 10046 10051 10057 10061 10066 10071 10077 10084 10089 10095 10100 10106 10111 10116 10122 10126 10133 10139 10145 10151 10157 10163 10169 10174 10179 10184 10187 10190 10194 10198 10203 10208 10214 10219 10222 10226 10232
10029 10028 10028 10027 10027 10027 10026 10025 10025 10026 10029 10031 10033 10036 10040 10044 10048 10052 10057 10062 10067 10072 10078 10083 10089 10094 10099 10103 10107 10112 10116 10121 10128 10133 10136 10142 10148 10154 10159 10164 10167 10170 10174 10177 10179 10182 10187 10191 10194 10197 10201 10206 10211 10216
10035 10035 10036 10035 10035 10035 10035 10035 10036 10036 10038 10040 10043 10045 10048 10051 10055 10059 10064 10069 10073 10078 10083 10088 10093 10098 10103 10108 10112 10117 10120 10124 10128 10132 10136 10140 10145 10149 10153 10158 10161 10164 10165 10167 10168 10170 10172 10177 10181 10184 10188 10192 10196 10200
10041 10042 10042 10042 10042 10043 10042 10043 10044 10045 10047 10050 10053 10055 10057 10060 10063 10067 10071 10075 10079 10083 10087 10092 10097 10101 10105 10109 10113 10116 10120 10124 10127 10131 10135 10138 10141 10143 10146 10150 10151 10153 10156 10158 10160 10162 10163 10166 10169 10172 10175 10178 10181 10185
10047 10048 10049 10049 10050 10051 10051 10050 10052 10053 10054 10058 10060 10063 10065 10068 10071 10075 10079 10082 10086 10089 10092 10097 10100 10104 10107 10112 10116 10120 10124 10126 10128 10130 10132 10134 10136 10139 10140 10142 10144 10145 10147 10149 10151 10153 10154 10156 10157 10159 10162 10164 10167 10169
10055 10056 10057 10056 10057 10058 10059 10059 10060 10061 10063 10065 10067 10069 10072 10075 10079 10082 10086 10089 10092 10095 10098 10101 10105 10109 10112 10114 10117 10120 10122 10124 10127 10129 10130 10132 10134 10135 10137 10137 10138 10138 10138 10139 10140 10142 10143 10144 10145 10146 10148 10149 10149 10150
10061 10063 10064 10064 10066 10068 10069 10069 10069 10070 10071 10072 10074 10076 10080 10082 10085 10089 10092 10094 10098 10101 10104 10107 10110 10112 10115 10117 10119 10121 10122 10123 10125 10126 10126 10127 10128 10129 10130 10130 10130 10130 10130 10130 10131 10131 10132 10133 10134 10135 10135 10136 10136 10136
10069 10073 10074 10074 10075 10076 10077 10077 10078 10077 10079 10080 10082 10084 10087 10089 10092 10096 10099 10101 10104 10107 10111 10114 10117 10118 10119 10120 10120 10121 10122 10122 10123 10123 10123 10123 10123 10123 10124 10123 10123 10122 10121 10121 10121 10120 10120 10120 10120 10119 10119 10120 10120 10119
10078 10082 10083 10083 10084 10084 10085 10088 10086 10089 10092 10093 10093 10094 10097 10098 10099 10101 10105 10107 10110 10114 10116 10117 10118 10119 10119 10120 10120 10120 10120 10119 10119 10119 10118 10117 10115 10114 10113 10112 10111 10110 10109 10108 10107 10105 10104 10102 10101 10100 10099 10098 10097 10096
10088 10090 10091 10092 10093 10095 10096 10097 10097 10097 10100 10102 10103 10103 10104 10106 10108 10110 10113 10115 10117 10118 10120 10120 10121 10121 10121 10121 10121 10120 10119 10117 10115 10114 10112 10110 10108 10106 10104 10101 10099 10097 10094 10092 10089 10088 10086 10084 10082 10081 10080 10078 10077 10076
10095 10097 10099 10100 10102 10102 10103 10105 10105 10105 10106 10109 10110 10110 10111 10113 10115 10115 10116 10117 10117 10118 10118 10118 10118 10118 10117 10116 10114 10112 10110 10108 10106 10104 10101 10099 10097 10094 10091 10088 10086 10083 10080 10078 10075 10072 10069 10066 10064 10061 10059 10057 10055 10053
10101 10103 10105 10106 10108 10109 10110 10111 10112 10112 10112 10112 10113 10114 10116 10117 10118 10119 10119 10119 10119 10118 10118 10116 10114 10113 10110 10108 10105 10102 10099 10095 10091 10088 10086 10082 10079 10076 10073 10071 10067 10064 10061 10058 10056 10053 10049 10046 10043 10040 10037 10035 10033 10030
10107 10108 10109 10110 10112 10112 10114 10114 10114 10114 10116 10117 10118 10119 10120 10120 10119 10119 10118 10117 10116 10115 10113 10111 10109 10106 10103 10098 10094 10088 10083 10078 10074 10069 10066 10062 10058 10054 10050 10047 10044 10041 10037 10034 10033 10030 10027 10024 10020 10017 10014 10012 10010 10008
10110 10111 10112 10113 10114 10115 10116 10116 10117 10118 10118 10119 10119 10120 10120 10119 10118 10118 10117 10115 10114 10111 10108 10104 10100 10096 10090 10084 10078 10072 10067 10061 10057 10053 10048 10043 10038 10034 10030 10027 10024 10021 10018 10015 10013 10011 10008 10004 10001 9997 9994 9991 9988 9986
10110 10111 10112 10113 10113 10114 10115 10115 10116 10116 10117 10117 10117 10117 10117 10116 10115 10113 10111 10108 10105 10101 10096 10091 10086 10081 10074 10067 10060 10054 10049 10043 10038 10034 10031 10028 10024 10019 10014 10011 10008 10005 10002 9999 9996 9993 9990 9987 9983 9980 9976 9973 9969 9966
10109 10110 10111 10112 10113 10114 10114 10115 10115 10115 10114 10114 10113 10112 10110 10108 10106 10104 10101 10098 10094 10089 10083 10076 10069 10062 10057 10052 10046 10041 10035 10028 10022 10017 10014 10012 10009 10005 10000 9996 9992 9989 9986 9983 9980 9977 9974 9971 9967 9964 9960 9957 9953 9949
10108 10110 10111 10112 10112 10112 10112 10112 10112 10111 10110 10109 10108 10106 10104 10101 10098 10094 10090 10085 10079 10074 10067 10059 10053 10048 10041 10036 10032 10027 10022 10016 10011 10006 10002 9998 9995 9992 9988 9984 9981 9977 9973 9969 9966 9962 9959 9955 9952 9948 9945 9941 9937 9934
10106 10108 10109 10109 10109 10109 10108 10108 10107 10106 10105 10103 10101 10098 10096 10093 10088 10083 10077 10071 10065 10057 10052 10045 10041 10034 10029 10023 10019 10015 10010 10006 10001 9997 9992 9988 9984 9980 9976 9972 9968 9964 9961 9957 9953 9950 9946 9942 9938 9935 9931 9927 9923 9919
10103 10104 10104 10104 10104 10103 10103 10102 10101 10099 10097 10095 10092 10089 10086 10081 10076 10070 10063 10057 10050 10044 10038 10032 10027 10021 10016 10012 10007 10003 9999 9994 9989 9985 9980 9977 9973 9969 9965 9961 9957 9953 9949 9945 9942 9938 9935 9931 9927 9923 9919 9915 9910 9905
10098 10098 10098 10098 10098 10097 10096 10094 10093 10091 10088 10085 10082 10078 10073 10067 10062 10055 10049 10042 10036 10031 10025 10020 10015 10009 10004 10000 9996 9991 9987 9983 9979 9974 9970 9965 9961 9957 9953 9950 9946 9942 9938 9934 9930 9927 9923 9919 9915 9910 9906 9902 9897 9893
10092 10092 10092 10092 10090 10088 10086 10085 10083 10079 10076 10073 10069 10064 10059 10053 10047 10041 10035 10030 10025 10020 10014 10009 10005 10000 9994 9988 9984 9980 9976 9971 9967 9963 9958 9954 9950 9946 9942 9938 9934 9930 9926 9922 9918 9915 9911 9907 9903 9899 9895 9891 9886 9882
10084 10084 10083 10081 10079 10078 10076 10073 10070 10067 10064 10059 10055 10049 10044 10039 10033 10028 10023 10019 10014 10008 10003 9998 9993 9989 9985 9980 9975 9971 9966 9962 9957 9953 9948 9944 9940 9936 9931 9927 9923 9919 9915 9912 9908 9905 9901 9897 9894 9890 9885 9881 9876 9872